Regional Weather Roundup
Issued by NWS Kansas City/Pleasant Hill, MO

Home | Current Version | Previous Version | Text Only | Print | Product List | Glossary On
Versions: 1 2 3 4 5 6 7 8 9 10 11 12 13 14 15 16 17 18 19 20 21 22 23 24 25 26 27 28 29 30 31 32 33 34 35 36 37 38 39 40 41 42 43 44 45 46 47 48 49 50
000
ASUS43 KEAX 050810
RWREAX

WEATHER ROUNDUP FOR EASTERN KANSAS AND NORTHWEST MISSOURI
NATIONAL WEATHER SERVICE KANSAS CITY/PLEASANT HILL MO
300 AM CDT SUN JUL 05 2015

KSZ040-057-103>105-MOZ028-029-037-043-050900-
...KANSAS CITY METROPOLITAN AREA...

CITY           SKY/WX    TMP DP  RH WIND       PRES   REMARKS
K.C. INTL      CLEAR     68  64  87 SE7       29.99F FOG
K.C. DOWNTOWN  CLEAR     75  64  68 SE7       29.98F
LEES SUMMIT    CLEAR     69  64  84 SE6       30.00F
OLATHE - IXD   CLEAR     69  65  86 SE7       30.00F
OLATHE - OJC   CLEAR     67  64  90 SE5       29.99F
LAWRENCE       CLEAR     66  63  90 E5        29.98F FOG

$$

MOZ001>008-011>017-020>025-030>033-038>040-044>046-053-054-050900-
...NORTHERN AND CENTRAL MISSOURI...

CITY           SKY/WX    TMP DP  RH WIND       PRES   REMARKS
ST. JOSEPH     CLEAR     68  64  87 S3        29.98F
MOSBY          SUNNY     64  64 100 CALM      29.99F FOG
HARRISONVILLE  CLEAR     68  66  94 E3        30.02F
WARRENSBURG    CLEAR     64  63  94 E3        30.00F
WHITEMAN AFB   CLEAR     68  65  90 SE1       30.00F
CLINTON        CLEAR     68  68 100 CALM      30.01F FOG
SEDALIA        PTCLDY    68  64  87 SE5       30.03F FOG
WARSAW         NOT AVBL
CHILLICOTHE      N/A     65  63  93 CALM      30.02F
KIRKSVILLE     CLEAR     64  62  93 S5        30.05S

$$

MOZ041-047>049-056>058-063>065-088>090-097-050900-
...EASTERN AND SOUTHERN MISSOURI...

CITY           SKY/WX    TMP DP  RH WIND       PRES   REMARKS
ST. LOUIS INTL CLEAR     71  62  73 CALM      30.05S HAZE
SPIRIT OF STL  MOCLDY    66  65  96 CALM      30.04S FOG
COLUMBIA       CLEAR     69  65  86 E7        30.03F
JEFFERSON CITY CLEAR     68  64  87 CALM      30.02F
MEXICO         CLEAR    N/A N/A N/A SE5       30.05S HAZE
ROLLA          CLEAR     69  67  93 SE8       30.03F FOG
LEBANON        CLEAR     68  66  94 MISG      30.05F
OSAGE BEACH    CLEAR     70  64  83 CALM      30.03S
SPRINGFIELD    PTCLDY    71  68  90 SE7       30.03S
BRANSON          N/A     68  68 100 CALM      30.05S
JOPLIN         CLEAR     72  68  87 SE5       30.00S
WEST PLAINS    CLOUDY    70  68  93 CALM      30.06F FOG
MALDEN         FOG       70  68  94 CALM      30.04S VSB 1/2

$$

IAZ060-094-KSZ022-034>040-054-083-096-NEZ052-066-093-050900-
...KANSAS...SOUTHEAST NEBRASKA AND IOWA...

CITY           SKY/WX    TMP DP  RH WIND       PRES   REMARKS
TOPEKA         CLEAR     70  65  84 E5        29.97F
MANHATTAN      MOCLDY    73  67  81 S6        29.94F
EMPORIA        PTCLDY    71  66  84 SE9       29.97F
CHANUTE        CLEAR     70  67  90 SE7       29.98F FOG
WICHITA        PTCLDY    76  67  73 SE10      29.95F
OMAHA          MOCLDY    69  62  78 S9        29.93F
LINCOLN        PTCLDY    70  64  81 S12       29.92F
FALLS CITY     CLEAR     67  63  87 SE8       29.95F
LAMONI         CLEAR     67  62  84 S7        30.00F
DES MOINES     PTCLDY    66  59  78 S6        29.99S

$$




USA.gov is the U.S. government's official web portal to all federal, state and local government web resources and services.